Weather History for KMWM - November, 2012

Change the Weather History Date:

Friday, November 9, 2012

  Actual Average Record
Temperature  
Mean Temperature 43 °F -  
Max Temperature 53 °F 42 °F 75 °F (1999)
Min Temperature 33 °F 26 °F 7 °F (1991)
Degree Days  
Heating Degree Days 22    
Moisture  
Dew Point 38 °F    
Average Humidity 85    
Maximum Humidity 100    
Minimum Humidity 62    
Precipitation  
Precipitation 0.00 in - - ()
Sea Level Pressure  
Sea Level Pressure 29.89 in    
Wind  
Wind Speed 11 mph (NE)    
Max Wind Speed 17 mph    
Max Gust Speed 23 mph    
Visibility 6 miles    
Events Fog    
Averages and records for this station are not official NWS values.
T = Trace of Precipitation, MM = Missing Value Source: NWS Daily Summary

Daily Weather History Graph

Daily Weather History Graph

Search for Another Location

Airport or City:

Trip Planner

Search our weather history database for the weather conditions in past years. The results will help you decide how hot, cold, wet, or windy it might be!

Date:

Astronomy

Nov. 09, 2012 Rise Set
Actual Time 7:07 AM CST 5:00 PM CST
Civil Twilight 6:37 AM CST 5:30 PM CST
Nautical Twilight 6:02 AM CST 6:05 PM CST
Astronomical Twilight 5:28 AM CST 6:39 PM CST
Moon 1:58 AM CST (11/9) 2:21 PM CST (11/9)
Length of Visible Light 10h 53m
Length of Day
9h 52m
Waning Crescent, 23% of the Moon is Illuminated
Nov 9
Waning Crescent
Nov 13
New
Nov 20
First Quarter
Nov 28
Full
Dec 6
Last Quarter

Hourly Weather History & Observations

Time (CST) Temp. Windchill Dew Point Humidity Pressure Visibility Wind Dir Wind Speed Gust Speed Precip Events Conditions
12:13 AM 35.6 °F 28.0 °F 35.6 °F 100% 29.95 in 5.0 mi North 10.4 mph - N/A   Clear
12:32 AM 35.6 °F 28.6 °F 33.8 °F 93% 29.94 in 5.0 mi North 9.2 mph - N/A   Clear
12:52 AM 35.6 °F 28.6 °F 33.8 °F 93% 29.94 in 5.0 mi North 9.2 mph - N/A   Clear
1:13 AM 35.6 °F 28.6 °F 33.8 °F 93% 29.94 in 5.0 mi North 9.2 mph - N/A   Clear
1:32 AM 33.8 °F 27.0 °F 33.8 °F 100% 29.94 in 5.0 mi North 8.1 mph - N/A   Clear
1:52 AM 35.6 °F 28.0 °F 33.8 °F 93% 29.93 in 7.0 mi North 10.4 mph - N/A   Clear
2:12 AM 35.6 °F 27.5 °F 33.8 °F 93% 29.93 in 7.0 mi North 11.5 mph - N/A   Clear
2:32 AM 35.6 °F 28.0 °F 33.8 °F 93% 29.93 in 7.0 mi NNE 10.4 mph - N/A   Clear
2:52 AM 35.6 °F 28.6 °F 33.8 °F 93% 29.92 in 7.0 mi NNE 9.2 mph - N/A   Clear
3:12 AM 33.8 °F 26.4 °F 33.8 °F 100% 29.93 in 5.0 mi NNE 9.2 mph - N/A   Clear
3:33 AM 33.8 °F 25.8 °F 33.8 °F 100% 29.93 in 5.0 mi North 10.4 mph - N/A   Clear
3:52 AM 33.8 °F 27.0 °F 33.8 °F 100% 29.94 in 4.0 mi North 8.1 mph - N/A   Clear
4:12 AM 33.8 °F 25.8 °F 33.8 °F 100% 29.94 in 4.0 mi North 10.4 mph - N/A   Clear
4:33 AM 33.8 °F 25.8 °F 33.8 °F 100% 29.94 in 4.0 mi North 10.4 mph - N/A   Scattered Clouds
4:52 AM 33.8 °F 25.3 °F 33.8 °F 100% 29.94 in 4.0 mi North 11.5 mph - N/A   Mostly Cloudy
5:12 AM 33.8 °F 25.3 °F 33.8 °F 100% 29.95 in 3.0 mi North 11.5 mph - N/A   Overcast
5:52 AM 35.6 °F 28.0 °F 33.8 °F 93% 29.95 in 3.0 mi NNE 10.4 mph - N/A   Overcast
6:12 AM 35.6 °F 27.5 °F 33.8 °F 93% 29.94 in 2.5 mi NNE 11.5 mph - N/A   Overcast
6:33 AM 33.8 °F 25.8 °F 33.8 °F 100% 29.94 in 2.0 mi NNE 10.4 mph - N/A   Overcast
6:52 AM 33.8 °F 25.8 °F 33.8 °F 100% 29.94 in 1.5 mi NNE 10.4 mph - N/A   Overcast
7:12 AM 33.8 °F 26.4 °F 33.8 °F 100% 29.95 in 1.2 mi NE 9.2 mph - N/A   Overcast
7:33 AM 33.8 °F 25.8 °F 33.8 °F 100% 29.96 in 1.2 mi NNE 10.4 mph - N/A   Overcast
7:52 AM 35.6 °F 28.0 °F 33.8 °F 93% 29.96 in 0.5 mi NNE 10.4 mph - N/A Fog Fog
8:12 AM 35.6 °F 28.6 °F 35.6 °F 100% 29.97 in 0.2 mi NE 9.2 mph - N/A Fog Fog
8:33 AM 35.6 °F 28.6 °F 35.6 °F 100% 29.96 in 0.2 mi NE 9.2 mph - N/A Fog Fog
8:52 AM 35.6 °F 28.6 °F 35.6 °F 100% 29.95 in 0.2 mi NE 9.2 mph - N/A Fog Fog
9:12 AM 35.6 °F 27.5 °F 35.6 °F 100% 29.95 in 0.2 mi NE 11.5 mph - N/A Fog Fog
9:33 AM 35.6 °F 27.5 °F 35.6 °F 100% 29.94 in 0.2 mi ENE 11.5 mph - N/A Fog Fog
9:52 AM 37.4 °F 30.3 °F 37.4 °F 100% 29.93 in 0.5 mi NE 10.4 mph - N/A Fog Fog
10:12 AM 37.4 °F 29.8 °F 37.4 °F 100% 29.94 in 1.2 mi NE 11.5 mph - N/A   Overcast
10:33 AM 39.2 °F 32.5 °F 37.4 °F 93% 29.93 in 2.5 mi ENE 10.4 mph - N/A   Overcast
10:52 AM 41.0 °F 34.3 °F 39.2 °F 93% 29.93 in 4.0 mi ENE 11.5 mph - N/A   Overcast
11:12 AM 42.8 °F 36.2 °F 39.2 °F 87% 29.92 in 7.0 mi ENE 12.7 mph - N/A   Mostly Cloudy
11:32 AM 46.4 °F 41.1 °F 39.2 °F 76% 29.91 in 10.0 mi ENE 11.5 mph - N/A   Clear
11:52 AM 48.2 °F - 39.2 °F 71% 29.90 in 10.0 mi ENE 12.7 mph - N/A   Clear
12:13 PM 51.8 °F - 39.2 °F 62% 29.89 in 10.0 mi East 17.3 mph - N/A   Clear
12:32 PM 51.8 °F - 39.2 °F 62% 29.87 in 10.0 mi East 16.1 mph 23.0 mph N/A   Clear
12:52 PM 51.8 °F - 41.0 °F 67% 29.86 in 10.0 mi East 17.3 mph 23.0 mph N/A   Clear
1:13 PM 51.8 °F - 41.0 °F 67% 29.85 in 10.0 mi East 16.1 mph 19.6 mph N/A   Clear
1:32 PM 50.0 °F - 41.0 °F 71% 29.84 in 10.0 mi East 13.8 mph 21.9 mph N/A   Clear
1:52 PM 51.8 °F - 42.8 °F 71% 29.85 in 10.0 mi East 9.2 mph 19.6 mph N/A   Clear
2:13 PM 53.6 °F - 42.8 °F 67% 29.84 in 10.0 mi East 15.0 mph - N/A   Clear
2:32 PM 53.6 °F - 41.0 °F 62% 29.83 in 10.0 mi East 13.8 mph 21.9 mph N/A   Clear
2:52 PM 53.6 °F - 41.0 °F 62% 29.83 in 10.0 mi East 15.0 mph 20.7 mph N/A   Clear
3:13 PM 53.6 °F - 42.8 °F 67% 29.83 in 10.0 mi East 17.3 mph - N/A   Clear
3:32 PM 53.6 °F - 42.8 °F 67% 29.83 in 10.0 mi East 17.3 mph 20.7 mph N/A   Clear
3:52 PM 51.8 °F - 42.8 °F 71% 29.83 in 10.0 mi East 13.8 mph - N/A   Clear
4:13 PM 51.8 °F - 42.8 °F 71% 29.83 in 10.0 mi ENE 16.1 mph 20.7 mph N/A   Clear
4:32 PM 51.8 °F - 42.8 °F 71% 29.83 in 10.0 mi ENE 16.1 mph - N/A   Mostly Cloudy
4:52 PM 51.8 °F - 42.8 °F 71% 29.84 in 10.0 mi ENE 15.0 mph 19.6 mph N/A   Overcast
5:12 PM 50.0 °F - 42.8 °F 76% 29.83 in 10.0 mi ENE 16.1 mph 19.6 mph N/A   Overcast
5:32 PM 50.0 °F - 42.8 °F 76% 29.84 in 10.0 mi ENE 15.0 mph 19.6 mph N/A   Overcast
5:53 PM 50.0 °F - 42.8 °F 76% 29.84 in 10.0 mi East 12.7 mph - N/A   Overcast
6:12 PM 48.2 °F - 42.8 °F 82% 29.84 in 10.0 mi East 15.0 mph - N/A   Overcast
6:32 PM 48.2 °F - 41.0 °F 76% 29.83 in 10.0 mi East 16.1 mph - N/A   Overcast
6:53 PM 48.2 °F - 42.8 °F 82% 29.84 in 10.0 mi East 13.8 mph 20.7 mph N/A   Overcast
7:12 PM 48.2 °F - 42.8 °F 82% 29.83 in 10.0 mi East 15.0 mph - N/A   Overcast
7:32 PM 48.2 °F - 41.0 °F 76% 29.84 in 10.0 mi East 12.7 mph - N/A   Overcast
7:53 PM 48.2 °F - 41.0 °F 76% 29.84 in 10.0 mi East 12.7 mph - N/A   Overcast
8:12 PM 48.2 °F - 42.8 °F 82% 29.84 in 10.0 mi East 11.5 mph - N/A   Overcast
8:32 PM 48.2 °F - 41.0 °F 76% 29.84 in 7.0 mi East 11.5 mph - N/A   Overcast
9:12 PM 46.4 °F 40.7 °F 42.8 °F 87% 29.83 in 7.0 mi East 12.7 mph 19.6 mph N/A   Overcast
9:32 PM 46.4 °F 40.4 °F 42.8 °F 87% 29.83 in 7.0 mi East 13.8 mph - N/A   Overcast
9:52 PM 46.4 °F 40.1 °F 42.8 °F 87% 29.83 in 7.0 mi East 15.0 mph - N/A   Overcast
10:12 PM 46.4 °F 40.1 °F 41.0 °F 81% 29.82 in 7.0 mi East 15.0 mph - N/A   Overcast
10:33 PM 46.4 °F 40.7 °F 41.0 °F 81% 29.81 in 7.0 mi East 12.7 mph - N/A   Overcast
10:52 PM 46.4 °F 40.4 °F 41.0 °F 81% 29.80 in 7.0 mi East 13.8 mph 19.6 mph N/A   Overcast
11:12 PM 46.4 °F 40.1 °F 41.0 °F 81% 29.79 in 7.0 mi East 15.0 mph 20.7 mph N/A   Mostly Cloudy
11:32 PM 46.4 °F 39.8 °F 41.0 °F 81% 29.78 in 7.0 mi East 16.1 mph 20.7 mph N/A   Mostly Cloudy
11:52 PM 46.4 °F 40.1 °F 41.0 °F 81% 29.77 in 7.0 mi East 15.0 mph - N/A   Overcast